User: anonymous   Login
Location: *
(2.7500°S, 66.6833°W)
Time: 04:55:20
(UTC+00:00)
Language:

Meteor 2-15 - Orbit

View from above orbital plane
View from above orbital plane
View from above satellite
View from above satellite

Ground track
Ground track

The orbit data is extracted from the following two-line orbital elements,

1 17290U 87001A   24194.60002489  .00000074  00000-0  52634-4 0  9999
2 17290  82.4684 302.5163 0012873 355.7810   4.3239 13.85163287896281
Epoch (UTC): 12 July 2024 14:24:02
Eccentricity: 0.0012873
inclination: 82.4684°
perigee height: 936 km
apogee height: 955 km
right ascension of ascending node: 302.5163°
argument of perigee: 355.7810°
revolutions per day: 13.85163287
mean anomaly at epoch: 4.3239°
orbit number at epoch: 89628

The dashed part of the orbit path shows where the satellite is in the earth's shadow,  

DLR